Regional Weather Roundup
Issued by NWS Green Bay, WI

Home | Current Version | Previous Version | Graphics & Text | Print | Product List | Glossary Off
Versions: 1 2 3 4 5 6 7 8 9 10 11 12 13 14 15 16 17 18 19 20 21 22 23 24 25 26 27 28 29 30 31 32 33 34 35 36 37 38 39 40 41 42 43 44 45 46 47 48 49 50

000
ASUS43 KGRB 011959
RWRGRB

NORTH-CENTRAL AND NORTHEAST WISCONSIN REGIONAL WEATHER ROUNDUP
NATIONAL WEATHER SERVICE GREEN BAY WI
300 PM CDT FRI AUG 01 2014

WIZ005-009-010>012-018-019-012100-
NORTH CENTRAL WISCONSIN

CITY           SKY/WX    TMP DP  RH WIND       PRES   REMARKS
IRONWOOD       NOT AVBL
MANITOWISH WTR NOT AVBL
ARBOR VITAE    NOT AVBL
EAGLE RIVER    NOT AVBL
LAND O LAKES   NOT AVBL
RHINELANDER    SUNNY     77  52  41 VRB5      30.09R
PHILLIPS       MOSUNNY   77  56  49 N5        30.08R
ANTIGO         NOT AVBL
TOMAHAWK       NOT AVBL
MERRILL        NOT AVBL
$$

WIZ013-073-012100-
NORTHEAST WISCONSIN

CITY           SKY/WX    TMP DP  RH WIND       PRES   REMARKS
IRON MOUNTAIN  SUNNY     79  48  33 W5        30.05S
MARINETTE      MOSUNNY   77  61  57 SE5       30.03S
$$

WIZ017-030-035>037-045-012100-
CENTRAL WISCONSIN

CITY           SKY/WX    TMP DP  RH WIND       PRES   REMARKS
MEDFORD        NOT AVBL
WAUSAU         LGT RAIN  66  63  90 N3        30.05S
MOSINEE        NOT AVBL
MARSHFIELD     TSTM      73  66  78 NW5       30.06S
WISC RAPIDS    MOSUNNY   82  63  52 W10       30.06S
STEVENS POINT  NOT AVBL
WAUPACA        PTSUNNY   85  55  36 W8        30.05R
SHAWANO        NOT AVBL
CLINTONVILLE   PTSUNNY   68  55  64 W3        30.05S
$$

WIZ038-039-048-051-012100-
FOX VALLEY

CITY           SKY/WX    TMP DP  RH WIND       PRES   REMARKS
NWS GREEN BAY  PTSUNNY   80  61  52 SW5       30.03F
APPLETON       PTSUNNY   77  57  50 SW6       30.06S THUNDER
OSHKOSH        PTSUNNY   74  58  57 SW8       30.05R THUNDER
FOND DU LAC    PTSUNNY   78  61  55 NW17G24   30.05S THUNDER
$$

WIZ022-050-052-012100-
EAST CENTRAL WISCONSIN

CITY           SKY/WX    TMP DP  RH WIND       PRES   REMARKS
STURGEON BAY   NOT AVBL
MANITOWOC      NOT AVBL
SHEBOYGAN      MOSUNNY   81  59  47 CALM      30.04F
$$

LMZ563-521-522-541>543-012100-
LAKESHORE

STATION/POSITION TIME  TEMP    WIND        PRES    VSBY  WAVE
                       AIR SEA DIR/SP/G                  HT/PER
                 (UTC) (F)     (DEG/KT/KT) (MB)    (MI)  (FT/S)
SHEBOYGAN LKSHOR 1900   70     170/ 14/ 15 1017.3F
KEWAUNEE LKSHORE 1900   63     170/  5/  6 1016.8F
NORTHPORT PIER   1900   64     130/  8/  9 1017.6S
N MID LAKE BUOY  1900   61 60   70/  4/  6 1017.7S         1
CHAMBERS ISLAND  1900   72     350/  6/  7 1017.3F
MENOMINEE LKSHOR 1900   72     120/  3/  4 1017.7F
$$


USA.gov is the U.S. government's official web portal to all federal, state and local government web resources and services.